EW9560 Weather Reports


Display with metric or nautical units.
time (UTC)temp
F
wind
direction
speed
MPH
gust
MPH
rain 1hr
in
rain 24hr
in
rain mn
in
humidity
%
barometer
mb
20260507011530 68 274 9.0 22.0 0.00 0.00 0.00 54 1019.5
20260507010034 68 282 9.0 20.0 0.00 0.00 0.00 54 1019.4
20260507003037 67 274 10.0 22.0 0.00 0.00 0.00 55 1019.4
20260507001537 66 279 9.0 20.0 0.00 0.00 0.00 55 1019.3
20260507000036 66 286 9.0 23.0 0.00 0.00 0.00 55 1019.3
20260506234611 66 282 11.0 23.0 0.00 0.00 0.00 55 1019.1
20260506233037 67 279 10.0 21.0 0.00 0.00 0.00 56 1019.2
20260506231536 67 275 7.0 19.0 0.00 0.00 0.00 56 1019.3
20260506230039 67 262 7.0 18.0 0.00 0.00 0.00 55 1019.4
20260506224532 68 275 5.0 14.0 0.00 0.00 0.00 53 1019.4
20260506223034 69 256 7.0 17.0 0.00 0.00 0.00 53 1019.5
20260506221534 70 263 9.0 19.0 0.00 0.00 0.00 53 1019.4
20260506214533 69 267 8.0 21.0 0.00 0.00 0.00 54 1019.6
20260506213031 69 275 10.0 23.0 0.00 0.00 0.00 53 1019.6
20260506211644 69 272 12.0 26.0 0.00 0.00 0.00 53 1019.5
20260506210110 69 287 13.0 24.0 0.00 0.00 0.00 53 1019.4
20260506203036 68 290 9.0 22.0 0.00 0.00 0.00 55 1020.2
20260506200109 68 293 9.0 22.0 0.00 0.00 0.00 56 1020.2
20260506194533 67 294 11.0 24.0 0.00 0.00 0.00 56 1020.1
20260506193035 68 289 10.0 28.0 0.00 0.00 0.00 57 1020.2
20260506190037 66 281 11.0 20.0 0.00 0.00 0.00 60 1020.5
20260506183034 65 282 8.0 15.0 0.00 0.00 0.00 63 1020.4
20260506180031 65 281 11.0 25.0 0.00 0.00 0.00 65 1020.4
20260506173034 64 295 10.0 24.0 0.00 0.00 0.00 66 1020.2
20260506170034 64 291 12.0 23.0 0.00 0.00 0.00 66 1019.7
20260506164535 63 287 11.0 21.0 0.00 0.00 0.00 70 1019.8
20260506161533 62 271 11.0 25.0 0.00 0.00 0.00 71 1020.4
20260506153035 62 281 13.0 25.0 0.00 0.00 0.00 70 1020.0
20260506151531 62 278 11.0 27.0 0.00 0.00 0.00 70 1019.7
20260506144535 61 278 10.0 20.0 0.00 0.00 0.00 70 1019.6
20260506143035 61 273 9.0 20.0 0.00 0.00 0.00 70 1019.7
20260506134537 60 249 6.0 23.0 0.00 0.00 0.00 70 1019.4
20260506133035 60 251 6.0 16.0 0.00 0.00 0.00 71 1019.3
20260506131532 59 269 7.0 17.0 0.00 0.00 0.00 71 1019.2
20260506130031 59 274 7.0 17.0 0.00 0.00 0.00 72 1019.1
20260506124537 59 271 6.0 18.0 0.00 0.00 0.00 72 1019.1
20260506121532 59 269 9.0 22.0 0.00 0.00 0.00 72 1018.6
20260506120036 59 273 6.0 14.0 0.00 0.00 0.00 72 1018.6
20260506114534 59 269 7.0 15.0 0.00 0.00 0.00 71 1018.5
20260506113034 60 272 6.0 14.0 0.00 0.00 0.00 71 1018.4
20260506111536 60 266 6.0 16.0 0.00 0.00 0.00 70 1018.3
20260506104535 59 264 7.0 18.0 0.00 0.00 0.00 71 1018.0
20260506103031 60 269 7.0 15.0 0.00 0.00 0.00 72 1017.8
20260506101535 59 273 8.0 17.0 0.00 0.00 0.00 74 1017.8
20260506094537 59 267 8.0 19.0 0.00 0.00 0.00 74 1017.7
20260506091534 59 258 8.0 17.0 0.00 0.00 0.00 74 1017.6
20260506090035 59 250 7.0 15.0 0.00 0.00 0.00 74 1017.5
20260506084535 59 253 6.0 18.0 0.00 0.00 0.00 75 1017.5
20260506073037 59 271 6.0 16.0 0.00 0.00 0.00 75 1017.0
20260506061611 60 268 7.0 20.0 0.00 0.00 0.00 74 1016.5
20260506044535 60 283 10.0 20.0 0.00 0.00 0.00 72 1015.6
20260506041536 60 286 13.0 25.0 0.00 0.00 0.00 71 1015.1
20260506040044 61 286 11.0 24.0 0.00 0.00 0.00 70 1014.9
20260506034534 61 291 11.0 22.0 0.00 0.00 0.00 70 1014.7
20260506033150 61 287 11.0 28.0 0.00 0.00 0.00 69 1014.5
20260506031532 62 284 11.0 26.0 0.00 0.00 0.00 68 1014.2
20260506030037 63 290 11.0 25.0 0.00 0.00 0.00 67 1014.0
20260506024543 63 292 13.0 23.0 0.00 2.56 0.00 66 1013.8
20260506024536 64 289 10.0 23.0 0.00 2.56 0.00 65 1014.0
20260506021537 64 285 9.0 22.0 0.00 2.56 0.00 64 1014.1